DMSP 5D-2 F11 DEB, 28315

Orbit data source: Space-Track

DMSP 5D-2 F11 DEB, 28315 is space debris in SSO originally from a launch on Thu, 28 Nov 1991 UTC launched from the Air Force Western Test Range (AFWTR). Debris objects in space refer to the collection of defunct objects orbiting the Earth. Examples of debris include non-operational satellites, rocket bodies, and fragments generated from explosions, collisions, or faulty payload assembly.

Loading next visibility...
Identifier
28315, 1991-082AC
Orbit
SSO
Country
Flag of USUS
Related business
Manufacturer
Unknown
Mission
Spacecraft
Bus & Motor
Unknown
Mass
Unknown
Launch date (UTC)
1991-11-28 (34 years ago)
Launch vehicle
Unknown
Launch site
Air Force Western Test Range (AFWTR)
Object type
Payload
Rocket body
Debris
Shape & HBR
Unknown shape, 0.1 m
Radar Cross Section
Small (<0.1 m²)

Expand to show TLE details & history
Last TLE update: 19 hours ago

TLE from 19 hours ago
0 DMSP 5D-2 F11 DEB
1 28315U 91082AC  25349.78218686  .00003473  00000-0  15455-2 0  9997
2 28315  98.7903  85.9191 0101919  34.8108  84.8509 14.20775396103591
Epoch: 2025-12-15T18:46Z
TLE epoch observation values (Epoch: 2025-12-15T18:46:20.944Z)
Latitude
58.16285°
Longitude
-86.00127°
Altitude
826.66 km
Speed
7.448 km/s
True Right ascension
18h 41m 02s
True Declination
58° 00' 36"
Sunlit
Object was in daylight at epoch
Visualization orbit readout
Latitude
Unknown
Longitude
Unknown
Altitude
Unknown
Speed
Unknown
Apparent Right ascension
Unknown
Apparent Declination
Unknown
Sunlit
N/A
Visualization observer readout
Local Sidereal Time
12:52:04
Azimuth
Unknown
Elevation
Unknown
Doppler factor
Unknown
Orbital elements
Apogee altitude
893.254 km
Perigee altitude
746.531 km
Semi-major axis
7,198.03 km
Eccentricity
0.01019
Inclination
98.7903°
RAAN
85.9191°
Arg. of periapsis
34.8108°
True anomaly
86.01534°
Mean anomaly
84.8509°
Eccentric anomaly
85.433°
Mean motion
3.55404 °/min
Orbital period
101.29 mins
BSTAR
0.0015455

Documentation

Showing up to 5 results
|